Regional Weather Roundup
Issued by NWS Bismarck, ND

Home | Current Version | Previous Version | Text Only | Print | Product List | Glossary On
Versions: 1 2 3 4 5 6 7 8 9 10 11 12 13 14 15 16 17 18 19 20 21 22 23 24 25 26 27 28 29 30 31 32 33 34 35 36 37 38 39 40 41 42 43 44 45 46 47 48 49 50
000
ASUS43 KBIS 280910
RWRBIS

NWR BROADCAST TEXT
NATIONAL WEATHER SERVICE BISMARCK ND
300 AM CST WED JAN 28 2015

NOTE: "FAIR" INDICATES FEW OR NO CLOUDS BELOW 12,000 FEET WITH NO
SIGNIFICANT WEATHER AND/OR OBSTRUCTIONS TO VISIBILITY.


CITY           SKY/WX    TMP DP  RH WIND       PRES   REMARKS
WILLISTON      CLOUDY    30  28  92 N3        29.74S
MINOT          MOCLDY    30  27  88 W5        29.74S
MINOT AFB      MOCLDY    29  29 100 N6        29.74F
BISMARCK       CLEAR     29  28  96 CALM      29.75S
DICKINSON      CLEAR     31  26  82 SW5       29.72F
GARRISON         N/A     28  26  92 CALM      29.73S
HETTINGER ARPT CLEAR     28  25  88 W3        29.76F
JAMESTOWN      FOG       32  32 100 S12       29.76F VSB 1/4
BEACH          FAIR      39  32  75 SW7       29.76S
CARRINGTON     FOG       32  32 100 MISG      29.76S VSB 1/2
CROSBY         PTSUNNY   30  30 100 NE5       29.74F FOG
HARVEY         FAIR      25  25 100 CALM      29.74S FOG
HAZEN          FAIR      27  25  93 SW6       29.75S WCI  20
LINTON         FAIR      28  28 100 SE5       29.74F
MANDAN         FAIR      36  32  87 CALM      29.74F
OAKES            N/A     28  28 100 E7        29.80S FOG
RUGBY          FOG       28  28 100 E9        29.74F VSB 1/4 WCI  20
TIOGA          FAIR      28  28 100 SE3       29.75F
WATFORD CITY   FAIR      32  32 100 CALM      29.72S
$$

CITY           SKY/WX    TMP DP  RH WIND       PRES   REMARKS
GRAND FORKS    CLOUDY    34  32  92 S10       29.84F FOG
GRAND FORKS AF CLOUDY    33  32  97 S13       29.83F FOG
DEVILS LAKE    CLOUDY    32  30  93 SE6       29.76F VSB 1/2
FARGO          CLOUDY    35  31  85 SE20G26   29.84F
CANDO          FOG       32  32 100 SE8       29.76F VSB 1/4
CAVALIER       FOG       32  32 100 SE6       29.84S VSB 1/4
GWINNER        CLOUDY    32  32 100 CALM      29.82S VSB 1/4
LANGDON        FOG       32  32 100 SE8       29.78F VSB 1/4
ROLLA          FOG       30  30 100 E5        29.76F VSB 1/4
WALHALLA       FOG       32  32 100 SE3       29.84S VSB 1/2
$$

CITY           SKY/WX    TMP DP  RH WIND       PRES   REMARKS
ABERDEEN       PTCLDY    33  30  88 S7        29.79F
MOBRIDGE       MOCLDY    33  30  88 CALM      29.72S
BUFFALO          N/A     43  31  62 W7        29.70F
RAPID CITY     CLOUDY    43  26  51 NW6       29.77S
GLASGOW        PTCLDY    33  30  88 W6        29.76S
SIDNEY         CLOUDY    34  28  80 CALM      29.76F
WOLF POINT     MOCLDY    35  31  85 W6        29.76S
GLENDIVE       MOCLDY    34  30  86 S3        29.77S
MILES CITY     CLOUDY    36  31  82 W7        29.80R
BAKER          PTCLDY    32  28  85 CALM      29.78S
$$

CITY           SKY/WX    TMP DP  RH WIND       PRES   REMARKS
BILLINGS       CLOUDY    48  31  51 SW14      29.90R
GREAT FALLS    CLOUDY    49  29  46 SW16      29.91S
REGINA         CLOUDY    28  28 100 E10       29.78R WCI  19
ESTEVAN        CLOUDY    28  27  93 E7        29.75F
$$



USA.gov is the U.S. government's official web portal to all federal, state and local government web resources and services.